VK6HGR-1 Weather Reports


time (UTC)temp
C
wind
direction
speed
KPH
gust
KPH
rain 1hr
cm
rain 24hr
cm
rain mn
cm
humidity
%
barometer
mb
20260505003012 15 0.0 0.0 0.00 0.00 0.00 66 1024.2
20260505001511 13 0.0 0.0 0.00 0.00 0.00 68 1024.1
20260505000012 13 0.0 0.0 0.00 0.00 0.00 69 1024.0
20260504234514 13 0.0 0.0 0.00 0.00 0.00 70 1023.8
20260504233011 12 0.0 0.0 0.00 0.00 0.00 71 1023.6
20260504231510 12 0.0 0.0 0.00 0.00 0.00 72 1023.5
20260504230011 12 0.0 0.0 0.00 0.00 0.00 71 1023.4
20260504224525 12 0.0 0.0 0.00 0.00 0.00 71 1023.1
20260504223010 12 0.0 0.0 0.00 0.00 0.00 71 1022.8
20260504221511 12 0.0 0.0 0.00 0.00 0.00 70 1022.7
20260504220010 13 0.0 0.0 0.00 0.00 0.00 70 1022.7
20260504214511 13 0.0 0.0 0.00 0.00 0.00 70 1022.6
20260504213012 13 0.0 0.0 0.00 0.00 0.00 70 1022.6
20260504211511 13 0.0 0.0 0.00 0.00 0.00 70 1022.6
20260504210012 13 0.0 0.0 0.00 0.00 0.00 70 1022.6
20260504204511 13 0.0 0.0 0.00 0.00 0.00 70 1022.7
20260504203020 13 0.0 0.0 0.00 0.00 0.00 69 1022.6
20260504201511 13 0.0 0.0 0.00 0.00 0.00 70 1022.6
20260504200355 13 0.0 0.0 0.00 0.00 0.00 70 1022.6
20260504200010 13 0.0 0.0 0.00 0.00 0.00 70 1022.6
20260504194510 13 0.0 0.0 0.00 0.00 0.00 70 1022.7
20260504193010 13 0.0 0.0 0.00 0.00 0.00 70 1022.8
20260504191512 13 0.0 0.0 0.00 0.00 0.00 70 1022.8
20260504190010 13 0.0 0.0 0.00 0.00 0.00 69 1022.9
20260504184511 13 0.0 0.0 0.00 0.00 0.00 69 1022.8
20260504183013 13 0.0 0.0 0.00 0.00 0.00 69 1022.9
20260504181514 13 0.0 0.0 0.00 0.00 0.00 69 1023.1
20260504180124 13 0.0 0.0 0.00 0.00 0.00 68 1023.2
20260504180011 13 0.0 0.0 0.00 0.00 0.00 68 1023.2
20260504174511 13 0.0 0.0 0.00 0.00 0.00 67 1023.1
20260504173012 13 0.0 0.0 0.00 0.00 0.00 67 1023.1
20260504171511 14 0.0 0.0 0.00 0.00 0.00 67 1023.2
20260504081511 22 0.0 0.0 0.00 0.00 0.00 52 1021.9
20260504050011 22 0.0 0.0 0.00 0.00 0.00 49 1023.1
20260504044511 22 0.0 0.0 0.00 0.00 0.00 50 1023.3
20260504043012 21 0.0 0.0 0.00 0.00 0.00 50 1023.5
20260504041512 21 0.0 0.0 0.00 0.00 0.00 51 1023.8
20260504040010 21 0.0 0.0 0.00 0.00 0.00 52 1024.2
20260504034512 21 0.0 0.0 0.00 0.00 0.00 52 1024.5
20260504033011 21 0.0 0.0 0.00 0.00 0.00 54 1024.7
20260504031511 20 0.0 0.0 0.00 0.00 0.00 55 1024.7
20260504030010 20 0.0 0.0 0.00 0.00 0.00 56 1024.9
20260504024511 19 0.0 0.0 0.00 0.00 0.00 56 1025.1
20260504023012 19 0.0 0.0 0.00 0.00 0.00 55 1025.2
20260504021512 18 0.0 0.0 0.00 0.00 0.00 57 1025.2
20260504020011 18 0.0 0.0 0.00 0.00 0.00 59 1025.3
20260504014510 17 0.0 0.0 0.00 0.00 0.00 62 1025.4
20260504013014 16 0.0 0.0 0.00 0.00 0.00 65 1025.4
20260504011511 16 0.0 0.0 0.00 0.00 0.00 67 1025.5
20260504010012 15 0.0 0.0 0.00 0.00 0.00 69 1025.5
20260504004512 14 0.0 0.0 0.00 0.00 0.00 70 1025.5